Regional Weather Roundup
Issued by NWS

Home | Current Version | Previous Version | Text Only | Print | Product List | Glossary Off
Versions: 1 2 3 4 5 6 7 8 9 10 11 12 13 14 15 16 17 18 19 20 21 22 23 24 25 26 27 28 29 30 31 32 33 34 35 36 37 38 39 40 41 42 43 44 45 46 47 48 49 50

000
ASUS43 KIND 262000
RWRIN

WEATHER ROUNDUP FOR INDIANA
NATIONAL WEATHER SERVICE INDIANAPOLIS IN
400 PM EDT MON JUN 26 2017

NOTE: "FAIR" INDICATES FEW OR NO CLOUDS BELOW 12,000 FEET WITH NO
SIGNIFICANT WEATHER AND/OR OBSTRUCTIONS TO VISIBILITY.

* - STATION DOES NOT REPORT WEATHER SUCH AS PRECIPITATION OR FOG.

+ - STATION NOT QUALITY CONTROLLED BY THE NATIONAL WEATHER SERVICE.
    USE DATA WITH CAUTION...ESPECIALLY DEWPOINT AND RELATIVE
    HUMIDITY OBSERVATIONS.

INZ001>003-010>013-019-020-262100-
NORTHWEST INDIANA

CITY           SKY/WX    TMP DP  RH WIND       PRES   REMARKS
GARY /AIRPORT/ PTSUNNY   73  36  25 W14G31    30.05F
KNOX *+        CLOUDY    64  36  34 N9        30.04F
MICHIGAN CITY+ MOSUNNY   70  46  43 N9        30.05F
MONTICELLO +   PTSUNNY   71  44  38 W15G25    30.07F

$$

LMZ046-743>745-262100-
SOUTHERN LAKE MICHIGAN

STATION/POSITION TIME  TEMP    WIND        PRES    WAVE
                       AIR SEA DIR/SP/G            HT
                 (UTC) (F)     (DEG/KT/KT) (MB)    (FT)
BURNS HARBOR     1940   67      40/  5/  7 1017.9F
MICHIGAN CITY    1930   68     300/  4/  5   N/A
5NW MICH CITY    1950   65 67  350/  6/  8   N/A     2

$$

INZ004-005-014>016-021>024-262100-
NORTH CENTRAL INDIANA

CITY           SKY/WX    TMP DP  RH WIND       PRES   REMARKS
ELKHART        PTSUNNY   72  43  35 NW17      30.04F
GOSHEN         CLOUDY    67  42  40 W14       30.04F
SOUTH BEND     CLOUDY    68  47  46 W8        30.05S

$$

INZ006>009-017-018-025>027-262100-
NORTHEAST INDIANA

CITY           SKY/WX    TMP DP  RH WIND       PRES   REMARKS
FORT WAYNE     PTSUNNY   72  45  37 W17G24    30.07F
KENDALLVILLE + PTSUNNY   69  41  36 W8G20     30.05S

$$

INZ028-029-035-036-043>045-051>053-262100-
WEST CENTRAL INDIANA

CITY           SKY/WX    TMP DP  RH WIND       PRES   REMARKS
CRAWFORDSVL +  CLOUDY    67  47  48 W12       30.13F
GREENCASTLE +  CLOUDY    68  46  45 W6        30.14F
LAFAYETTE      CLOUDY    67  48  50 W15G23    30.09F
TERRE HAUTE    CLOUDY    70  45  40 W17G29    30.15S

$$

INZ030>032-037>040-046>048-054>057-064-065-262100-
CENTRAL INDIANA

CITY           SKY/WX    TMP DP  RH WIND       PRES   REMARKS
COLUMBUS       CLOUDY    73  39  29 W12       30.13F
GREENWOOD *+   CLOUDY    71  46  39 W9G21     30.13S
INDIANAPOLIS   CLOUDY    70  47  43 W18G25    30.12S
-EAGLE CREEK   CLOUDY    70  47  43 W10       30.11F
KOKOMO +       CLOUDY    70  47  43 W22       30.10F
MT COMFORT *+  CLOUDY    70  48  46 W14G22    30.12S
SHELBYVILLE    CLOUDY    73  46  38 W14G22    30.11F

$$

INZ033-034-041-042-049-050-058-059-262100-
EAST CENTRAL INDIANA

CITY           SKY/WX    TMP DP  RH WIND       PRES   REMARKS
MUNCIE         CLOUDY    69  47  45 W13       30.10S
RICHMOND +     PTSUNNY   70  45  40 W12G23    30.12S

$$

INZ060-061-067>069-081>083-085>088-262100-
SOUTHWEST INDIANA

CITY           SKY/WX    TMP DP  RH WIND       PRES   REMARKS
EVANSVILLE     MOSUNNY   78  49  35 NW8G18    30.15F
HUNTINGBURG *+ PTSUNNY   76  52  43 NW12G17   30.15F

$$

INZ062-063-066-070>080-084-089>092-262100-
SOUTH CENTRAL AND SOUTHEAST INDIANA

CITY           SKY/WX    TMP DP  RH WIND       PRES   REMARKS
BLOOMINGTON    CLOUDY    71  46  40 NW10      30.14S
MADISON *+     MOSUNNY   77  41  27 W8G18     30.15F
SEYMOUR +      PTSUNNY   75  48  38 NW8G18    30.13S

$$





USA.gov is the U.S. government's official web portal to all federal, state and local government web resources and services.